Time,TemperatureF,DewpointF,PressureIn,WindDirection,WindDirectionDegrees,WindSpeedMPH,WindSpeedGustMPH,Humidity,HourlyPrecipIn,Conditions,Clouds,dailyrainin,SoftwareType,DateUTC
2013-09-10 00:01:00,78.9,71.8,30.14,ESE,123,3.0,10.0,79,0.00,,---,0.00,VWS V14.01,2013-09-10 04:01:00,
2013-09-10 00:02:00,78.9,71.8,30.14,ESE,119,6.0,10.0,79,0.00,,---,0.00,VWS V14.01,2013-09-10 04:02:00,
2013-09-10 00:06:00,78.9,71.8,30.14,ESE,121,2.0,10.0,79,0.00,,---,0.00,VWS V14.01,2013-09-10 04:06:00,
2013-09-10 00:11:00,78.8,71.7,30.14,SSE,148,3.0,10.0,79,0.00,,---,0.00,VWS V14.01,2013-09-10 04:11:00,
2013-09-10 00:16:00,78.7,72.0,30.14,SE,126,7.0,10.0,80,0.00,,---,0.00,VWS V14.01,2013-09-10 04:16:00,
2013-09-10 00:21:00,78.7,72.0,30.14,SE,127,5.0,10.0,80,0.00,,---,0.00,VWS V14.01,2013-09-10 04:21:00,
2013-09-10 00:26:00,78.6,71.9,30.14,ESE,123,3.0,10.0,80,0.00,,---,0.00,VWS V14.01,2013-09-10 04:26:00,
2013-09-10 00:32:00,78.6,71.9,30.13,SE,127,5.0,7.0,80,0.00,,---,0.00,VWS V14.01,2013-09-10 04:32:00,
2013-09-10 00:37:00,78.5,71.8,30.13,ESE,120,2.0,9.0,80,0.00,,---,0.00,VWS V14.01,2013-09-10 04:37:00,
2013-09-10 00:42:00,78.5,71.8,30.13,SE,145,7.0,10.0,80,0.00,,---,0.00,VWS V14.01,2013-09-10 04:42:00,
2013-09-10 00:47:00,78.6,71.9,30.13,SE,127,4.0,10.0,80,0.00,,---,0.00,VWS V14.01,2013-09-10 04:47:00,
2013-09-10 00:52:00,78.6,71.9,30.13,ESE,109,4.0,10.0,80,0.00,,---,0.00,VWS V14.01,2013-09-10 04:52:00,
2013-09-10 00:57:00,78.6,71.9,30.14,ESE,107,5.0,10.0,80,0.00,,---,0.00,VWS V14.01,2013-09-10 04:57:00,
2013-09-10 01:02:00,78.5,71.8,30.14,East,98,5.0,9.0,80,0.00,,---,0.00,VWS V14.01,2013-09-10 05:02:00,
2013-09-10 01:07:00,78.4,72.1,30.14,ESE,113,4.0,9.0,81,0.00,,---,0.00,VWS V14.01,2013-09-10 05:07:00,
2013-09-10 01:12:00,78.4,71.7,30.14,ESE,113,6.0,9.0,80,0.00,,---,0.00,VWS V14.01,2013-09-10 05:12:00,
2013-09-10 01:17:00,78.3,71.6,30.14,ESE,112,2.0,9.0,80,0.00,,---,0.00,VWS V14.01,2013-09-10 05:17:00,
2013-09-10 01:22:00,78.3,71.6,30.14,ESE,105,5.0,9.0,80,0.00,,---,0.00,VWS V14.01,2013-09-10 05:22:00,
2013-09-10 01:27:00,78.1,71.4,30.14,East,100,3.0,3.0,80,0.00,,---,0.00,VWS V14.01,2013-09-10 05:27:00,
2013-09-10 01:32:00,77.5,71.6,30.15,NE,55,2.0,4.0,82,0.00,,---,0.00,VWS V14.01,2013-09-10 05:32:00,
2013-09-10 01:37:00,76.5,71.0,30.14,NNE,33,3.0,5.0,83,0.00,,---,0.00,VWS V14.01,2013-09-10 05:37:00,
2013-09-10 01:42:00,76.1,70.9,30.14,NE,54,3.0,5.0,84,0.00,,---,0.00,VWS V14.01,2013-09-10 05:42:00,
2013-09-10 01:47:00,75.7,70.9,30.14,NE,46,3.0,5.0,85,0.00,,---,0.00,VWS V14.01,2013-09-10 05:47:00,
2013-09-10 01:53:00,75.4,70.9,30.14,NE,40,2.0,5.0,86,0.00,,---,0.00,VWS V14.01,2013-09-10 05:53:00,
2013-09-10 01:58:00,75.1,70.6,30.14,NE,40,1.0,2.0,86,0.00,,---,0.00,VWS V14.01,2013-09-10 05:58:00,
2013-09-10 02:03:00,74.7,70.2,30.14,NE,40,1.0,2.0,86,0.00,,---,0.00,VWS V14.01,2013-09-10 06:03:00,
2013-09-10 02:08:00,74.6,70.5,30.14,NE,40,2.0,3.0,87,0.00,,---,0.00,VWS V14.01,2013-09-10 06:08:00,
2013-09-10 02:13:00,74.6,70.5,30.14,NE,40,2.0,3.0,87,0.00,,---,0.00,VWS V14.01,2013-09-10 06:13:00,
2013-09-10 02:18:00,74.6,70.5,30.14,NE,40,1.0,3.0,87,0.00,,---,0.00,VWS V14.01,2013-09-10 06:18:00,
2013-09-10 02:23:00,74.6,70.5,30.14,NE,40,3.0,4.0,87,0.00,,---,0.00,VWS V14.01,2013-09-10 06:23:00,
2013-09-10 02:28:00,74.5,70.7,30.14,NE,40,3.0,3.0,88,0.00,,---,0.00,VWS V14.01,2013-09-10 06:28:00,
2013-09-10 02:33:00,74.3,70.5,30.14,NE,34,4.0,5.0,88,0.00,,---,0.00,VWS V14.01,2013-09-10 06:33:00,
2013-09-10 02:38:00,74.0,70.2,30.14,NNE,28,2.0,5.0,88,0.00,,---,0.00,VWS V14.01,2013-09-10 06:38:00,
2013-09-10 02:43:00,74.0,70.6,30.14,NNE,25,3.0,5.0,89,0.00,,---,0.00,VWS V14.01,2013-09-10 06:43:00,
2013-09-10 02:48:00,73.7,70.3,30.14,NNE,22,5.0,6.0,89,0.00,,---,0.00,VWS V14.01,2013-09-10 06:48:00,
2013-09-10 02:53:00,73.4,70.0,30.14,NNE,29,4.0,6.0,89,0.00,,---,0.00,VWS V14.01,2013-09-10 06:53:00,
2013-09-10 02:58:00,73.2,69.8,30.14,NNE,18,3.0,5.0,89,0.00,,---,0.00,VWS V14.01,2013-09-10 06:58:00,
2013-09-10 03:03:00,73.1,69.7,30.14,NNE,27,5.0,6.0,89,0.00,,---,0.00,VWS V14.01,2013-09-10 07:03:00,
2013-09-10 03:08:00,73.1,69.7,30.14,NNE,24,5.0,6.0,89,0.00,,---,0.00,VWS V14.01,2013-09-10 07:08:00,
2013-09-10 03:14:00,73.2,69.8,30.14,NE,39,5.0,6.0,89,0.00,,---,0.00,VWS V14.01,2013-09-10 07:14:00,
2013-09-10 03:19:00,73.2,69.8,30.14,NE,42,4.0,7.0,89,0.00,,---,0.00,VWS V14.01,2013-09-10 07:19:00,
2013-09-10 03:24:00,73.3,69.9,30.14,NE,40,7.0,7.0,89,0.00,,---,0.00,VWS V14.01,2013-09-10 07:24:00,
2013-09-10 03:29:00,73.1,69.7,30.14,NE,44,5.0,6.0,89,0.00,,---,0.00,VWS V14.01,2013-09-10 07:29:00,
2013-09-10 03:34:00,73.2,70.1,30.14,NE,35,7.0,7.0,90,0.00,,---,0.00,VWS V14.01,2013-09-10 07:34:00,
2013-09-10 03:39:00,73.2,70.1,30.14,NNE,29,5.0,7.0,90,0.00,,---,0.00,VWS V14.01,2013-09-10 07:39:00,
2013-09-10 03:44:00,73.1,70.0,30.14,NE,41,5.0,7.0,90,0.00,,---,0.00,VWS V14.01,2013-09-10 07:44:00,
2013-09-10 03:49:00,73.2,70.1,30.15,NNE,32,4.0,7.0,90,0.00,,---,0.00,VWS V14.01,2013-09-10 07:49:00,
2013-09-10 03:54:00,73.1,70.0,30.14,NE,36,6.0,7.0,90,0.00,,---,0.00,VWS V14.01,2013-09-10 07:54:00,
2013-09-10 03:59:00,72.9,70.1,30.14,NE,40,5.0,7.0,91,0.00,,---,0.00,VWS V14.01,2013-09-10 07:59:00,
2013-09-10 04:04:00,73.0,70.2,30.14,NNE,24,6.0,7.0,91,0.00,,---,0.00,VWS V14.01,2013-09-10 08:04:00,
2013-09-10 04:09:00,73.0,70.2,30.14,NNE,28,5.0,7.0,91,0.00,,---,0.00,VWS V14.01,2013-09-10 08:09:00,
2013-09-10 04:14:00,72.8,70.0,30.14,NNE,19,5.0,7.0,91,0.00,,---,0.00,VWS V14.01,2013-09-10 08:14:00,
2013-09-10 04:19:00,72.7,70.2,30.14,NNE,25,4.0,7.0,92,0.00,,---,0.00,VWS V14.01,2013-09-10 08:19:00,
2013-09-10 04:24:00,72.6,70.2,30.14,NNE,29,5.0,7.0,92,0.00,,---,0.00,VWS V14.01,2013-09-10 08:24:00,
2013-09-10 04:29:00,72.8,70.3,30.14,NNE,30,3.0,5.0,92,0.00,,---,0.00,VWS V14.01,2013-09-10 08:29:00,
2013-09-10 04:35:00,73.1,71.0,30.14,NE,42,3.0,5.0,93,0.00,,---,0.00,VWS V14.01,2013-09-10 08:35:00,
2013-09-10 04:40:00,73.1,71.0,30.15,NE,38,4.0,5.0,93,0.00,,---,0.00,VWS V14.01,2013-09-10 08:40:00,
2013-09-10 04:45:00,73.3,71.2,30.15,NE,38,4.0,5.0,93,0.00,,---,0.00,VWS V14.01,2013-09-10 08:45:00,
2013-09-10 04:50:00,73.5,71.4,30.15,NE,37,5.0,5.0,93,0.00,,---,0.00,VWS V14.01,2013-09-10 08:50:00,
2013-09-10 04:55:00,73.7,71.6,30.15,NNE,32,5.0,5.0,93,0.00,,---,0.00,VWS V14.01,2013-09-10 08:55:00,
2013-09-10 05:00:00,73.5,71.4,30.15,NNE,22,2.0,5.0,93,0.00,,---,0.00,VWS V14.01,2013-09-10 09:00:00,
2013-09-10 05:05:00,73.5,71.4,30.15,NE,40,5.0,6.0,93,0.00,,---,0.00,VWS V14.01,2013-09-10 09:05:00,
2013-09-10 05:10:00,73.9,71.8,30.15,NE,46,5.0,6.0,93,0.00,,---,0.00,VWS V14.01,2013-09-10 09:10:00,
2013-09-10 05:15:00,73.7,71.6,30.15,NE,48,4.0,6.0,93,0.00,,---,0.00,VWS V14.01,2013-09-10 09:15:00,
2013-09-10 05:20:00,73.5,71.4,30.15,NE,53,2.0,6.0,93,0.00,,---,0.00,VWS V14.01,2013-09-10 09:20:00,
2013-09-10 05:25:00,73.5,71.4,30.15,NE,54,3.0,6.0,93,0.00,,---,0.00,VWS V14.01,2013-09-10 09:25:00,
2013-09-10 05:30:00,73.7,71.9,30.15,ENE,64,2.0,4.0,94,0.00,,---,0.00,VWS V14.01,2013-09-10 09:30:00,
2013-09-10 05:35:00,73.7,71.6,30.15,ENE,64,2.0,4.0,93,0.00,,---,0.00,VWS V14.01,2013-09-10 09:35:00,
2013-09-10 05:40:00,73.6,71.5,30.15,ENE,64,3.0,4.0,93,0.00,,---,0.00,VWS V14.01,2013-09-10 09:40:00,
2013-09-10 05:45:00,73.5,71.4,30.15,NE,38,4.0,4.0,93,0.00,,---,0.00,VWS V14.01,2013-09-10 09:45:00,
2013-09-10 05:50:00,73.3,71.2,30.15,NNE,30,3.0,5.0,93,0.00,,---,0.00,VWS V14.01,2013-09-10 09:50:00,
2013-09-10 05:56:00,72.9,70.8,30.15,NNE,29,2.0,5.0,93,0.00,,---,0.00,VWS V14.01,2013-09-10 09:56:00,
2013-09-10 06:01:00,72.6,70.5,30.16,NE,36,3.0,5.0,93,0.00,,---,0.00,VWS V14.01,2013-09-10 10:01:00,
2013-09-10 06:06:00,72.6,70.5,30.16,NE,40,4.0,5.0,93,0.00,,---,0.00,VWS V14.01,2013-09-10 10:06:00,
2013-09-10 06:11:00,72.7,70.6,30.16,NE,49,4.0,5.0,93,0.00,,---,0.00,VWS V14.01,2013-09-10 10:11:00,
2013-09-10 06:16:00,72.7,70.6,30.17,NE,43,5.0,6.0,93,0.00,,---,0.00,VWS V14.01,2013-09-10 10:16:00,
2013-09-10 06:21:00,72.9,70.8,30.17,NE,49,4.0,6.0,93,0.00,,---,0.00,VWS V14.01,2013-09-10 10:21:00,
2013-09-10 06:26:00,73.1,71.0,30.17,NE,53,3.0,6.0,93,0.00,,---,0.00,VWS V14.01,2013-09-10 10:26:00,
2013-09-10 06:31:00,73.1,71.0,30.17,NE,36,3.0,5.0,93,0.00,,---,0.00,VWS V14.01,2013-09-10 10:31:00,
2013-09-10 06:36:00,72.9,70.8,30.17,NE,34,4.0,5.0,93,0.00,,---,0.00,VWS V14.01,2013-09-10 10:36:00,
2013-09-10 06:41:00,73.0,70.9,30.17,NE,34,4.0,5.0,93,0.00,,---,0.00,VWS V14.01,2013-09-10 10:41:00,
2013-09-10 06:46:00,72.9,70.8,30.17,NE,36,5.0,6.0,93,0.00,,---,0.00,VWS V14.01,2013-09-10 10:46:00,
2013-09-10 06:51:00,72.7,70.2,30.17,NE,39,4.0,6.0,92,0.00,,---,0.00,VWS V14.01,2013-09-10 10:51:00,
2013-09-10 06:56:00,72.9,70.8,30.17,ENE,61,3.0,6.0,93,0.00,,---,0.00,VWS V14.01,2013-09-10 10:56:00,
2013-09-10 07:01:00,73.1,71.0,30.18,NE,41,5.0,6.0,93,0.00,,---,0.00,VWS V14.01,2013-09-10 11:01:00,
2013-09-10 07:07:00,72.7,70.6,30.18,NE,39,5.0,7.0,93,0.00,,---,0.00,VWS V14.01,2013-09-10 11:07:00,
2013-09-10 07:12:00,72.6,70.5,30.18,NE,36,6.0,7.0,93,0.00,,---,0.00,VWS V14.01,2013-09-10 11:12:00,
2013-09-10 07:17:00,72.5,70.4,30.18,NE,34,6.0,8.0,93,0.00,,---,0.00,VWS V14.01,2013-09-10 11:17:00,
2013-09-10 07:22:00,72.4,70.3,30.18,NE,37,7.0,9.0,93,0.00,,---,0.00,VWS V14.01,2013-09-10 11:22:00,
2013-09-10 07:27:00,72.4,70.3,30.18,NE,40,5.0,9.0,93,0.00,,---,0.00,VWS V14.01,2013-09-10 11:27:00,
2013-09-10 07:32:00,72.5,70.4,30.18,NE,39,4.0,7.0,93,0.00,,---,0.00,VWS V14.01,2013-09-10 11:32:00,
2013-09-10 07:37:00,72.5,70.4,30.18,NE,41,4.0,7.0,93,0.00,,---,0.00,VWS V14.01,2013-09-10 11:37:00,
2013-09-10 07:42:00,72.7,70.6,30.18,NE,42,5.0,7.0,93,0.00,,---,0.00,VWS V14.01,2013-09-10 11:42:00,
2013-09-10 07:47:00,73.0,70.9,30.19,NE,40,4.0,7.0,93,0.00,,---,0.00,VWS V14.01,2013-09-10 11:47:00,
2013-09-10 07:52:00,73.0,70.9,30.19,NE,40,5.0,7.0,93,0.00,,---,0.00,VWS V14.01,2013-09-10 11:52:00,
2013-09-10 07:57:00,73.2,70.7,30.19,NNE,32,6.0,6.0,92,0.00,,---,0.00,VWS V14.01,2013-09-10 11:57:00,
2013-09-10 08:02:00,73.3,70.8,30.19,NE,36,4.0,7.0,92,0.00,,---,0.00,VWS V14.01,2013-09-10 12:02:00,
2013-09-10 08:07:00,73.6,71.1,30.19,NE,43,4.0,7.0,92,0.00,,---,0.00,VWS V14.01,2013-09-10 12:07:00,
2013-09-10 08:12:00,73.9,71.4,30.19,ENE,59,6.0,7.0,92,0.00,,---,0.00,VWS V14.01,2013-09-10 12:12:00,
2013-09-10 08:18:00,74.0,71.2,30.19,NE,41,6.0,7.0,91,0.00,,---,0.00,VWS V14.01,2013-09-10 12:18:00,
2013-09-10 08:23:00,74.0,71.2,30.19,NE,55,5.0,9.0,91,0.00,,---,0.00,VWS V14.01,2013-09-10 12:23:00,
2013-09-10 08:28:00,74.2,71.4,30.19,NE,42,7.0,7.0,91,0.00,,---,0.00,VWS V14.01,2013-09-10 12:28:00,
2013-09-10 08:33:00,74.2,71.1,30.19,NE,50,5.0,9.0,90,0.00,,---,0.00,VWS V14.01,2013-09-10 12:33:00,
2013-09-10 08:38:00,74.5,71.4,30.19,NE,55,8.0,10.0,90,0.00,,---,0.00,VWS V14.01,2013-09-10 12:38:00,
2013-09-10 08:43:00,74.8,71.3,30.19,NE,44,9.0,10.0,89,0.00,,---,0.00,VWS V14.01,2013-09-10 12:43:00,
2013-09-10 08:48:00,74.9,71.4,30.19,NE,49,6.0,10.0,89,0.00,,---,0.00,VWS V14.01,2013-09-10 12:48:00,
2013-09-10 08:53:00,75.2,71.7,30.19,NE,40,9.0,10.0,89,0.00,,---,0.00,VWS V14.01,2013-09-10 12:53:00,
2013-09-10 08:58:00,75.4,71.6,30.19,NE,51,4.0,8.0,88,0.00,,---,0.00,VWS V14.01,2013-09-10 12:58:00,
2013-09-10 09:03:00,75.8,72.0,30.20,ENE,67,7.0,10.0,88,0.00,,---,0.00,VWS V14.01,2013-09-10 13:03:00,
2013-09-10 09:08:00,76.0,72.2,30.20,ENE,64,10.0,10.0,88,0.00,,---,0.00,VWS V14.01,2013-09-10 13:08:00,
2013-09-10 09:13:00,76.2,72.1,30.20,ENE,67,9.0,10.0,87,0.00,,---,0.00,VWS V14.01,2013-09-10 13:13:00,
2013-09-10 09:18:00,76.4,71.9,30.21,ENE,76,5.0,10.0,86,0.00,,---,0.00,VWS V14.01,2013-09-10 13:18:00,
2013-09-10 09:23:00,76.6,72.1,30.21,ENE,61,5.0,10.0,86,0.00,,---,0.00,VWS V14.01,2013-09-10 13:23:00,
2013-09-10 09:29:00,76.7,71.9,30.21,ENE,61,7.0,8.0,85,0.00,,---,0.00,VWS V14.01,2013-09-10 13:29:00,
2013-09-10 09:34:00,76.8,71.9,30.21,ENE,62,10.0,10.0,85,0.00,,---,0.00,VWS V14.01,2013-09-10 13:34:00,
2013-09-10 09:39:00,77.0,72.2,30.21,ENE,75,5.0,10.0,85,0.00,,---,0.00,VWS V14.01,2013-09-10 13:39:00,
2013-09-10 09:44:00,77.1,71.9,30.21,NE,56,5.0,10.0,84,0.00,,---,0.00,VWS V14.01,2013-09-10 13:44:00,
2013-09-10 09:49:00,77.4,72.2,30.21,ENE,65,5.0,10.0,84,0.00,,---,0.00,VWS V14.01,2013-09-10 13:49:00,
2013-09-10 09:54:00,77.6,72.0,30.21,ENE,71,7.0,10.0,83,0.00,,---,0.00,VWS V14.01,2013-09-10 13:54:00,
2013-09-10 09:59:00,77.9,72.0,30.21,ENE,59,3.0,7.0,82,0.00,,---,0.00,VWS V14.01,2013-09-10 13:59:00,
2013-09-10 10:04:00,78.1,72.5,30.21,East,86,3.0,10.0,83,0.00,,---,0.00,VWS V14.01,2013-09-10 14:04:00,
2013-09-10 10:09:00,78.8,72.8,30.22,ESE,112,8.0,12.0,82,0.00,,---,0.00,VWS V14.01,2013-09-10 14:09:00,
2013-09-10 10:14:00,79.5,73.2,30.22,ESE,115,4.0,13.0,81,0.00,,---,0.00,VWS V14.01,2013-09-10 14:14:00,
2013-09-10 10:19:00,79.8,73.4,30.22,ESE,117,7.0,13.0,81,0.00,,---,0.00,VWS V14.01,2013-09-10 14:19:00,
2013-09-10 10:24:00,80.3,73.6,30.22,ESE,115,11.0,13.0,80,0.00,,---,0.00,VWS V14.01,2013-09-10 14:24:00,
2013-09-10 10:29:00,80.6,73.5,30.22,ESE,105,4.0,9.0,79,0.00,,---,0.00,VWS V14.01,2013-09-10 14:29:00,
2013-09-10 10:34:00,80.8,73.7,30.22,ESE,116,6.0,11.0,79,0.00,,---,0.00,VWS V14.01,2013-09-10 14:34:00,
2013-09-10 10:39:00,80.9,73.8,30.21,ESE,110,10.0,11.0,79,0.00,,---,0.00,VWS V14.01,2013-09-10 14:39:00,
2013-09-10 10:45:00,81.3,74.2,30.22,ESE,119,6.0,12.0,79,0.00,,---,0.00,VWS V14.01,2013-09-10 14:45:00,
2013-09-10 10:50:00,81.2,74.1,30.21,East,87,5.0,12.0,79,0.00,,---,0.00,VWS V14.01,2013-09-10 14:50:00,
2013-09-10 10:55:00,81.2,73.3,30.21,ENE,78,5.0,12.0,77,0.00,,---,0.00,VWS V14.01,2013-09-10 14:55:00,
2013-09-10 11:00:00,80.8,73.3,30.21,ENE,69,5.0,6.0,78,0.00,,---,0.00,VWS V14.01,2013-09-10 15:00:00,
2013-09-10 11:05:00,80.9,73.8,30.21,ESE,105,5.0,9.0,79,0.00,,---,0.00,VWS V14.01,2013-09-10 15:05:00,
2013-09-10 11:10:00,81.4,74.3,30.21,East,100,10.0,11.0,79,0.00,,---,0.00,VWS V14.01,2013-09-10 15:10:00,
2013-09-10 11:15:00,81.5,74.0,30.21,ESE,113,8.0,11.0,78,0.00,,---,0.00,VWS V14.01,2013-09-10 15:15:00,
2013-09-10 11:20:00,81.7,74.2,30.21,ESE,117,9.0,11.0,78,0.00,,---,0.00,VWS V14.01,2013-09-10 15:20:00,
2013-09-10 11:25:00,81.9,74.4,30.21,East,98,4.0,11.0,78,0.00,,---,0.00,VWS V14.01,2013-09-10 15:25:00,
2013-09-10 11:30:00,82.0,74.5,30.21,ESE,113,9.0,10.0,78,0.00,,---,0.00,VWS V14.01,2013-09-10 15:30:00,
2013-09-10 11:35:00,82.0,74.5,30.21,ESE,114,6.0,10.0,78,0.00,,---,0.00,VWS V14.01,2013-09-10 15:35:00,
2013-09-10 11:40:00,82.3,74.8,30.21,East,93,4.0,10.0,78,0.00,,---,0.00,VWS V14.01,2013-09-10 15:40:00,
2013-09-10 11:45:00,82.4,74.5,30.21,ENE,78,4.0,10.0,77,0.00,,---,0.00,VWS V14.01,2013-09-10 15:45:00,
2013-09-10 11:50:00,82.5,74.6,30.21,ESE,121,6.0,11.0,77,0.00,,---,0.00,VWS V14.01,2013-09-10 15:50:00,
2013-09-10 11:55:00,82.7,74.8,30.21,SE,131,4.0,11.0,77,0.00,,---,0.00,VWS V14.01,2013-09-10 15:55:00,
2013-09-10 12:00:00,82.8,74.9,30.21,ESE,105,5.0,10.0,77,0.00,,---,0.00,VWS V14.01,2013-09-10 16:00:00,
2013-09-10 12:06:00,82.6,74.7,30.21,SE,129,5.0,11.0,77,0.00,,---,0.00,VWS V14.01,2013-09-10 16:06:00,
2013-09-10 12:11:00,83.1,75.2,30.20,SE,129,9.0,11.0,77,0.00,,---,0.00,VWS V14.01,2013-09-10 16:11:00,
2013-09-10 12:16:00,83.3,74.9,30.21,SE,130,13.0,13.0,76,0.00,,---,0.00,VWS V14.01,2013-09-10 16:16:00,
2013-09-10 12:21:00,83.4,75.1,30.21,SE,134,13.0,14.0,76,0.00,,---,0.00,VWS V14.01,2013-09-10 16:21:00,
2013-09-10 12:26:00,83.2,74.8,30.21,ESE,117,9.0,14.0,76,0.00,,---,0.00,VWS V14.01,2013-09-10 16:26:00,
2013-09-10 12:31:00,83.2,74.8,30.21,SE,146,9.0,14.0,76,0.00,,---,0.00,VWS V14.01,2013-09-10 16:31:00,
2013-09-10 12:36:00,83.0,75.1,30.21,SE,144,7.0,15.0,77,0.00,,---,0.00,VWS V14.01,2013-09-10 16:36:00,
2013-09-10 12:41:00,83.2,75.2,30.21,SE,138,9.0,15.0,77,0.00,,---,0.00,VWS V14.01,2013-09-10 16:41:00,
2013-09-10 12:46:00,83.2,75.2,30.21,ESE,115,6.0,15.0,77,0.00,,---,0.00,VWS V14.01,2013-09-10 16:46:00,
2013-09-10 12:51:00,83.5,75.1,30.21,SE,133,6.0,15.0,76,0.00,,---,0.00,VWS V14.01,2013-09-10 16:51:00,
2013-09-10 12:56:00,83.8,75.0,30.21,ESE,122,7.0,15.0,75,0.00,,---,0.00,VWS V14.01,2013-09-10 16:56:00,
2013-09-10 13:01:00,83.8,75.0,30.21,SE,146,6.0,16.0,75,0.00,,---,0.00,VWS V14.01,2013-09-10 17:01:00,
2013-09-10 13:06:00,83.7,75.3,30.21,SE,138,6.0,16.0,76,0.00,,---,0.00,VWS V14.01,2013-09-10 17:06:00,
2013-09-10 13:11:00,83.8,75.4,30.21,ESE,121,11.0,16.0,76,0.00,,---,0.00,VWS V14.01,2013-09-10 17:11:00,
2013-09-10 13:16:00,83.6,75.2,30.21,ESE,121,15.0,16.0,76,0.00,,---,0.00,VWS V14.01,2013-09-10 17:16:00,
2013-09-10 13:22:00,83.5,75.5,30.21,SE,125,15.0,16.0,77,0.00,,---,0.00,VWS V14.01,2013-09-10 17:22:00,
2013-09-10 13:27:00,83.4,75.4,30.21,ESE,103,10.0,16.0,77,0.00,,---,0.00,VWS V14.01,2013-09-10 17:27:00,
2013-09-10 13:32:00,83.8,75.0,30.21,SE,130,13.0,16.0,75,0.00,,---,0.00,VWS V14.01,2013-09-10 17:32:00,
2013-09-10 13:37:00,84.0,73.6,30.21,SE,131,7.0,16.0,71,0.00,,---,0.00,VWS V14.01,2013-09-10 17:37:00,
2013-09-10 13:42:00,84.1,73.7,30.21,SE,128,11.0,16.0,71,0.00,,---,0.00,VWS V14.01,2013-09-10 17:42:00,
2013-09-10 13:47:00,84.3,73.5,30.21,ESE,119,13.0,16.0,70,0.00,,---,0.00,VWS V14.01,2013-09-10 17:47:00,
2013-09-10 13:52:00,84.5,74.1,30.20,SE,134,12.0,16.0,71,0.00,,---,0.00,VWS V14.01,2013-09-10 17:52:00,
2013-09-10 13:57:00,84.5,73.2,30.20,SE,136,7.0,17.0,69,0.00,,---,0.00,VWS V14.01,2013-09-10 17:57:00,
2013-09-10 14:02:00,84.3,73.0,30.20,SE,133,10.0,17.0,69,0.00,,---,0.00,VWS V14.01,2013-09-10 18:02:00,
2013-09-10 14:07:00,84.5,74.1,30.20,SE,134,10.0,17.0,71,0.00,,---,0.00,VWS V14.01,2013-09-10 18:07:00,
2013-09-10 14:12:00,84.4,74.0,30.20,SE,132,10.0,17.0,71,0.00,,---,0.00,VWS V14.01,2013-09-10 18:12:00,
2013-09-10 14:17:00,84.3,73.9,30.20,ESE,123,9.0,17.0,71,0.00,,---,0.00,VWS V14.01,2013-09-10 18:17:00,
2013-09-10 14:22:00,84.3,73.5,30.20,SE,137,11.0,17.0,70,0.00,,---,0.00,VWS V14.01,2013-09-10 18:22:00,
2013-09-10 14:27:00,84.6,73.7,30.19,SE,138,13.0,13.0,70,0.00,,---,0.00,VWS V14.01,2013-09-10 18:27:00,
2013-09-10 14:32:00,84.7,73.0,30.19,ESE,122,11.0,14.0,68,0.00,,---,0.00,VWS V14.01,2013-09-10 18:32:00,
2013-09-10 14:37:00,84.8,73.9,30.19,SE,125,8.0,14.0,70,0.00,,---,0.00,VWS V14.01,2013-09-10 18:37:00,
2013-09-10 14:43:00,84.8,73.5,30.19,SE,126,9.0,16.0,69,0.00,,---,0.00,VWS V14.01,2013-09-10 18:43:00,
2013-09-10 14:48:00,84.9,74.0,30.19,SSE,153,5.0,16.0,70,0.00,,---,0.00,VWS V14.01,2013-09-10 18:48:00,
2013-09-10 14:53:00,85.3,74.4,30.19,South,181,7.0,16.0,70,0.00,,---,0.00,VWS V14.01,2013-09-10 18:53:00,
2013-09-10 14:58:00,85.5,74.6,30.18,SSE,149,11.0,11.0,70,0.00,,---,0.00,VWS V14.01,2013-09-10 18:58:00,
2013-09-10 15:03:00,85.5,74.6,30.18,SSE,158,5.0,15.0,70,0.00,,---,0.00,VWS V14.01,2013-09-10 19:03:00,
2013-09-10 15:08:00,85.4,74.9,30.19,SSE,159,11.0,15.0,71,0.00,,---,0.00,VWS V14.01,2013-09-10 19:08:00,
2013-09-10 15:13:00,85.3,74.8,30.18,SSE,156,9.0,15.0,71,0.00,,---,0.00,VWS V14.01,2013-09-10 19:13:00,
2013-09-10 15:18:00,85.0,74.6,30.18,SE,141,11.0,15.0,71,0.00,,---,0.00,VWS V14.01,2013-09-10 19:18:00,
2013-09-10 15:23:00,85.0,74.6,30.18,SE,129,11.0,15.0,71,0.00,,---,0.00,VWS V14.01,2013-09-10 19:23:00,
2013-09-10 15:28:00,84.7,74.7,30.18,SE,125,11.0,13.0,72,0.00,,---,0.00,VWS V14.01,2013-09-10 19:28:00,
2013-09-10 15:33:00,84.5,74.9,30.18,SE,134,7.0,16.0,73,0.00,,---,0.00,VWS V14.01,2013-09-10 19:33:00,
2013-09-10 15:38:00,84.2,74.6,30.18,SE,125,12.0,17.0,73,0.00,,---,0.00,VWS V14.01,2013-09-10 19:38:00,
2013-09-10 15:43:00,84.3,74.7,30.18,SSE,150,7.0,17.0,73,0.00,,---,0.00,VWS V14.01,2013-09-10 19:43:00,
2013-09-10 15:48:00,84.2,75.0,30.18,SE,125,14.0,18.0,74,0.00,,---,0.00,VWS V14.01,2013-09-10 19:48:00,
2013-09-10 15:54:00,84.2,73.8,30.18,SE,132,11.0,18.0,71,0.00,,---,0.00,VWS V14.01,2013-09-10 19:54:00,
2013-09-10 15:59:00,84.2,74.6,30.17,SE,130,18.0,18.0,73,0.00,,---,0.00,VWS V14.01,2013-09-10 19:59:00,
2013-09-10 16:04:00,84.1,74.1,30.17,SE,130,15.0,20.0,72,0.00,,---,0.00,VWS V14.01,2013-09-10 20:04:00,
2013-09-10 16:09:00,84.0,74.4,30.17,ESE,121,15.0,20.0,73,0.00,,---,0.00,VWS V14.01,2013-09-10 20:09:00,
2013-09-10 16:14:00,83.9,73.9,30.17,ESE,121,14.0,20.0,72,0.00,,---,0.00,VWS V14.01,2013-09-10 20:14:00,
2013-09-10 16:19:00,84.0,74.4,30.17,SE,128,19.0,20.0,73,0.00,,---,0.00,VWS V14.01,2013-09-10 20:19:00,
2013-09-10 16:24:00,83.8,73.8,30.17,SE,127,16.0,20.0,72,0.00,,---,0.00,VWS V14.01,2013-09-10 20:24:00,
2013-09-10 16:29:00,83.8,73.4,30.17,ESE,117,17.0,17.0,71,0.00,,---,0.00,VWS V14.01,2013-09-10 20:29:00,
2013-09-10 16:34:00,84.1,72.8,30.17,SE,142,10.0,17.0,69,0.00,,---,0.00,VWS V14.01,2013-09-10 20:34:00,
2013-09-10 16:39:00,84.3,73.0,30.17,SE,133,13.0,17.0,69,0.00,,---,0.00,VWS V14.01,2013-09-10 20:39:00,
2013-09-10 16:44:00,84.5,71.9,30.16,ESE,115,10.0,19.0,66,0.00,,---,0.00,VWS V14.01,2013-09-10 20:44:00,
2013-09-10 16:49:00,84.4,70.9,30.16,SE,140,18.0,19.0,64,0.00,,---,0.00,VWS V14.01,2013-09-10 20:49:00,
2013-09-10 16:54:00,84.3,71.3,30.17,ESE,121,13.0,20.0,65,0.00,,---,0.00,VWS V14.01,2013-09-10 20:54:00,
2013-09-10 16:59:00,84.3,71.3,30.17,ESE,115,17.0,19.0,65,0.00,,---,0.00,VWS V14.01,2013-09-10 20:59:00,
2013-09-10 17:04:00,84.4,71.8,30.16,SE,126,14.0,19.0,66,0.00,,---,0.00,VWS V14.01,2013-09-10 21:04:00,
2013-09-10 17:09:00,84.3,71.7,30.17,ESE,116,13.0,19.0,66,0.00,,---,0.00,VWS V14.01,2013-09-10 21:09:00,
2013-09-10 17:15:00,84.4,72.2,30.17,SE,130,16.0,19.0,67,0.00,,---,0.00,VWS V14.01,2013-09-10 21:15:00,
2013-09-10 17:20:00,84.4,71.8,30.16,SSE,150,10.0,19.0,66,0.00,,---,0.00,VWS V14.01,2013-09-10 21:20:00,
2013-09-10 17:25:00,84.1,71.5,30.16,SE,128,17.0,19.0,66,0.00,,---,0.00,VWS V14.01,2013-09-10 21:25:00,
2013-09-10 17:30:00,84.1,72.0,30.16,ESE,109,11.0,16.0,67,0.00,,---,0.00,VWS V14.01,2013-09-10 21:30:00,
2013-09-10 17:35:00,84.0,71.9,30.16,ESE,113,15.0,19.0,67,0.00,,---,0.00,VWS V14.01,2013-09-10 21:35:00,
2013-09-10 17:40:00,83.9,71.3,30.16,SE,132,16.0,20.0,66,0.00,,---,0.00,VWS V14.01,2013-09-10 21:40:00,
2013-09-10 17:45:00,83.9,70.9,30.16,ESE,111,13.0,20.0,65,0.00,,---,0.00,VWS V14.01,2013-09-10 21:45:00,
2013-09-10 17:50:00,83.8,71.2,30.16,SE,130,19.0,20.0,66,0.00,,---,0.00,VWS V14.01,2013-09-10 21:50:00,
2013-09-10 17:55:00,83.7,72.0,30.16,SSE,150,11.0,20.0,68,0.00,,---,0.00,VWS V14.01,2013-09-10 21:55:00,
2013-09-10 18:00:00,83.7,72.5,30.17,SE,130,16.0,17.0,69,0.00,,---,0.00,VWS V14.01,2013-09-10 22:00:00,
2013-09-10 18:05:00,83.4,72.2,30.16,SE,128,15.0,18.0,69,0.00,,---,0.00,VWS V14.01,2013-09-10 22:05:00,
2013-09-10 18:10:00,83.3,72.9,30.17,SE,130,13.0,19.0,71,0.00,,---,0.00,VWS V14.01,2013-09-10 22:10:00,
2013-09-10 18:15:00,83.1,73.1,30.17,SE,134,14.0,19.0,72,0.00,,---,0.00,VWS V14.01,2013-09-10 22:15:00,
2013-09-10 18:20:00,82.9,72.9,30.16,SE,130,16.0,19.0,72,0.00,,---,0.00,VWS V14.01,2013-09-10 22:20:00,
2013-09-10 18:25:00,82.8,73.3,30.17,SSE,148,7.0,19.0,73,0.00,,---,0.00,VWS V14.01,2013-09-10 22:25:00,
2013-09-10 18:31:00,82.6,73.5,30.17,ESE,119,10.0,18.0,74,0.00,,---,0.00,VWS V14.01,2013-09-10 22:31:00,
2013-09-10 18:36:00,82.5,73.8,30.16,ESE,118,11.0,18.0,75,0.00,,---,0.00,VWS V14.01,2013-09-10 22:36:00,
2013-09-10 18:41:00,82.3,74.0,30.16,SSE,153,10.0,18.0,76,0.00,,---,0.00,VWS V14.01,2013-09-10 22:41:00,
2013-09-10 18:46:00,82.0,74.1,30.16,SE,136,9.0,18.0,77,0.00,,---,0.00,VWS V14.01,2013-09-10 22:46:00,
2013-09-10 18:51:00,81.8,73.9,30.16,SE,130,13.0,18.0,77,0.00,,---,0.00,VWS V14.01,2013-09-10 22:51:00,
2013-09-10 18:56:00,81.5,74.0,30.16,SE,126,11.0,18.0,78,0.00,,---,0.00,VWS V14.01,2013-09-10 22:56:00,
2013-09-10 19:01:00,81.2,73.7,30.17,SSE,149,11.0,15.0,78,0.00,,---,0.00,VWS V14.01,2013-09-10 23:01:00,
2013-09-10 19:06:00,80.9,73.4,30.17,SE,129,9.0,15.0,78,0.00,,---,0.00,VWS V14.01,2013-09-10 23:06:00,
2013-09-10 19:11:00,80.8,73.3,30.17,SE,130,10.0,15.0,78,0.00,,---,0.00,VWS V14.01,2013-09-10 23:11:00,
2013-09-10 19:16:00,80.7,73.2,30.17,SSE,158,7.0,15.0,78,0.00,,---,0.00,VWS V14.01,2013-09-10 23:16:00,
2013-09-10 19:21:00,80.6,73.5,30.16,SE,138,7.0,15.0,79,0.00,,---,0.00,VWS V14.01,2013-09-10 23:21:00,
2013-09-10 19:26:00,80.5,73.0,30.16,SE,130,6.0,15.0,78,0.00,,---,0.00,VWS V14.01,2013-09-10 23:26:00,
2013-09-10 19:31:00,80.4,73.3,30.17,ESE,123,6.0,11.0,79,0.00,,---,0.00,VWS V14.01,2013-09-10 23:31:00,
2013-09-10 19:36:00,80.3,73.2,30.17,SE,128,12.0,12.0,79,0.00,,---,0.00,VWS V14.01,2013-09-10 23:36:00,
2013-09-10 19:41:00,80.2,73.1,30.17,SE,126,7.0,15.0,79,0.00,,---,0.00,VWS V14.01,2013-09-10 23:41:00,
2013-09-10 19:47:00,80.1,73.4,30.17,SE,132,8.0,15.0,80,0.00,,---,0.00,VWS V14.01,2013-09-10 23:47:00,
2013-09-10 19:52:00,80.0,73.3,30.17,ESE,120,10.0,15.0,80,0.00,,---,0.00,VWS V14.01,2013-09-10 23:52:00,
2013-09-10 19:57:00,79.9,73.2,30.17,SE,125,9.0,15.0,80,0.00,,---,0.00,VWS V14.01,2013-09-10 23:57:00,
2013-09-10 20:02:00,79.9,73.2,30.17,SE,129,8.0,13.0,80,0.00,,---,0.00,VWS V14.01,2013-09-11 00:02:00,
2013-09-10 20:07:00,79.8,73.1,30.17,SE,135,11.0,13.0,80,0.00,,---,0.00,VWS V14.01,2013-09-11 00:07:00,
2013-09-10 20:12:00,79.8,73.1,30.17,SE,130,5.0,14.0,80,0.00,,---,0.00,VWS V14.01,2013-09-11 00:12:00,
2013-09-10 20:17:00,79.7,73.0,30.17,SE,134,7.0,14.0,80,0.00,,---,0.00,VWS V14.01,2013-09-11 00:17:00,
2013-09-10 20:22:00,79.6,72.9,30.17,SE,127,10.0,15.0,80,0.00,,---,0.00,VWS V14.01,2013-09-11 00:22:00,
2013-09-10 20:27:00,79.6,73.3,30.17,SE,136,8.0,15.0,81,0.00,,---,0.00,VWS V14.01,2013-09-11 00:27:00,
2013-09-10 20:32:00,79.6,73.3,30.17,SE,128,8.0,16.0,81,0.00,,---,0.00,VWS V14.01,2013-09-11 00:32:00,
2013-09-10 20:37:00,79.6,72.9,30.17,SSE,167,5.0,16.0,80,0.00,,---,0.00,VWS V14.01,2013-09-11 00:37:00,
2013-09-10 20:42:00,79.6,73.3,30.18,SE,140,9.0,16.0,81,0.00,,---,0.00,VWS V14.01,2013-09-11 00:42:00,
2013-09-10 20:47:00,79.6,73.3,30.18,SE,138,11.0,16.0,81,0.00,,---,0.00,VWS V14.01,2013-09-11 00:47:00,
2013-09-10 20:52:00,79.5,73.2,30.18,SE,124,5.0,16.0,81,0.00,,---,0.00,VWS V14.01,2013-09-11 00:52:00,
2013-09-10 20:57:00,79.4,73.1,30.17,ESE,121,10.0,13.0,81,0.00,,---,0.00,VWS V14.01,2013-09-11 00:57:00,
2013-09-10 21:02:00,79.4,73.1,30.17,SE,130,8.0,15.0,81,0.00,,---,0.00,VWS V14.01,2013-09-11 01:02:00,
2013-09-10 21:08:00,79.4,73.4,30.18,SE,133,11.0,15.0,82,0.00,,---,0.00,VWS V14.01,2013-09-11 01:08:00,
2013-09-10 21:13:00,79.3,73.0,30.18,ESE,122,7.0,15.0,81,0.00,,---,0.00,VWS V14.01,2013-09-11 01:13:00,
2013-09-10 21:18:00,79.2,72.9,30.18,ESE,123,10.0,15.0,81,0.00,,---,0.00,VWS V14.01,2013-09-11 01:18:00,
2013-09-10 21:23:00,79.2,72.9,30.18,ESE,118,10.0,15.0,81,0.00,,---,0.00,VWS V14.01,2013-09-11 01:23:00,
2013-09-10 21:28:00,79.2,73.2,30.18,SE,126,12.0,12.0,82,0.00,,---,0.00,VWS V14.01,2013-09-11 01:28:00,
2013-09-10 21:33:00,79.2,73.2,30.18,ESE,109,9.0,12.0,82,0.00,,---,0.00,VWS V14.01,2013-09-11 01:33:00,
2013-09-10 21:38:00,79.1,73.1,30.18,SE,128,11.0,14.0,82,0.00,,---,0.00,VWS V14.01,2013-09-11 01:38:00,
2013-09-10 21:43:00,79.1,73.1,30.18,SSE,161,2.0,14.0,82,0.00,,---,0.00,VWS V14.01,2013-09-11 01:43:00,
2013-09-10 21:48:00,79.1,73.1,30.18,SE,132,11.0,14.0,82,0.00,,---,0.00,VWS V14.01,2013-09-11 01:48:00,
2013-09-10 21:53:00,79.0,73.0,30.18,SE,130,7.0,14.0,82,0.00,,---,0.00,VWS V14.01,2013-09-11 01:53:00,
2013-09-10 21:58:00,79.0,73.0,30.18,SE,139,10.0,13.0,82,0.00,,---,0.00,VWS V14.01,2013-09-11 01:58:00,
2013-09-10 22:03:00,79.0,73.0,30.18,SE,146,6.0,13.0,82,0.00,,---,0.00,VWS V14.01,2013-09-11 02:03:00,
2013-09-10 22:08:00,79.0,73.0,30.18,SE,124,10.0,13.0,82,0.00,,---,0.00,VWS V14.01,2013-09-11 02:08:00,
2013-09-10 22:13:00,78.9,72.9,30.18,SE,125,12.0,13.0,82,0.00,,---,0.00,VWS V14.01,2013-09-11 02:13:00,
2013-09-10 22:18:00,78.9,72.9,30.18,ESE,113,6.0,13.0,82,0.00,,---,0.00,VWS V14.01,2013-09-11 02:18:00,
2013-09-10 22:23:00,78.9,72.9,30.18,SE,128,9.0,13.0,82,0.00,,---,0.00,VWS V14.01,2013-09-11 02:23:00,
2013-09-10 22:29:00,78.9,72.9,30.18,ESE,117,6.0,8.0,82,0.00,,---,0.00,VWS V14.01,2013-09-11 02:29:00,
2013-09-10 22:34:00,78.8,72.8,30.18,SE,128,10.0,12.0,82,0.00,,---,0.00,VWS V14.01,2013-09-11 02:34:00,
2013-09-10 22:39:00,78.9,72.9,30.18,ESE,111,4.0,12.0,82,0.00,,---,0.00,VWS V14.01,2013-09-11 02:39:00,
2013-09-10 22:44:00,78.9,72.9,30.18,SE,129,10.0,12.0,82,0.00,,---,0.00,VWS V14.01,2013-09-11 02:44:00,
2013-09-10 22:49:00,78.9,72.9,30.18,ESE,123,4.0,12.0,82,0.00,,---,0.00,VWS V14.01,2013-09-11 02:49:00,
2013-09-10 22:54:00,78.9,72.9,30.18,ESE,123,9.0,12.0,82,0.00,,---,0.00,VWS V14.01,2013-09-11 02:54:00,
2013-09-10 22:59:00,78.8,72.8,30.18,ESE,113,3.0,8.0,82,0.00,,---,0.00,VWS V14.01,2013-09-11 02:59:00,
2013-09-10 23:04:00,78.8,72.8,30.18,ESE,115,7.0,9.0,82,0.00,,---,0.00,VWS V14.01,2013-09-11 03:04:00,
2013-09-10 23:09:00,78.9,72.9,30.18,SE,131,7.0,12.0,82,0.00,,---,0.00,VWS V14.01,2013-09-11 03:09:00,
2013-09-10 23:14:00,78.9,72.9,30.18,ESE,112,4.0,12.0,82,0.00,,---,0.00,VWS V14.01,2013-09-11 03:14:00,
2013-09-10 23:19:00,78.9,72.9,30.18,ESE,110,9.0,12.0,82,0.00,,---,0.00,VWS V14.01,2013-09-11 03:19:00,
2013-09-10 23:24:00,78.9,72.9,30.18,ESE,112,5.0,12.0,82,0.00,,---,0.00,VWS V14.01,2013-09-11 03:24:00,
2013-09-10 23:29:00,78.9,72.9,30.18,ESE,105,4.0,8.0,82,0.00,,---,0.00,VWS V14.01,2013-09-11 03:29:00,
2013-09-10 23:34:00,78.9,72.9,30.18,SE,125,7.0,10.0,82,0.00,,---,0.00,VWS V14.01,2013-09-11 03:34:00,
2013-09-10 23:39:00,78.9,72.6,30.18,SE,134,5.0,11.0,81,0.00,,---,0.00,VWS V14.01,2013-09-11 03:39:00,
2013-09-10 23:45:00,79.0,72.3,30.18,SE,125,3.0,11.0,80,0.00,,---,0.00,VWS V14.01,2013-09-11 03:45:00,
2013-09-10 23:50:00,79.3,72.6,30.19,SE,130,10.0,11.0,80,0.00,,---,0.00,VWS V14.01,2013-09-11 03:50:00,
2013-09-10 23:55:00,79.4,72.3,30.19,SE,132,6.0,11.0,79,0.00,,---,0.00,VWS V14.01,2013-09-11 03:55:00,